Location: Cerda�ola
(41.4919°N, 2.1403°E)
Time: 03:40:47
(UTC+00:00)

NOSS 3-3 (C) - Pass Details

Date: 29 March 2020
Orbit: 836 x 1376 km, 63.4° (Epoch: 05 May)

Event Time Altitude Azimuth Distance (km) Brightness Sun altitude
Rises 20:23:13 0° 206° (SSW) 3,398 6.8 -23.8°
Reaches altitude 10° 20:25:35 10° 204° (SSW) 2,496 6.1 -24.2°
Maximum altitude 20:31:18 72° 121° (ESE) 967 3.7 -25.1°
Drops below altitude 10° 20:37:42 10° 39° (NE) 2,786 6.3 -26.1°
Sets 20:40:28 0° 37° (NE) 3,823 7.1 -26.6°
